Weather History for Kalaeloa, HI

Change the Weather History Date:

Thursday, October 20, 2011

  Actual Average (PHNL) Record (PHNL)
Temperature  
Mean Temperature 78 °F 80 °F  
Max Temperature 86 °F 86 °F 91 °F (2009)
Min Temperature 69 °F 73 °F 64 °F (1981)
Degree Days  
Heating Degree Days 0 0  
Month to date heating degree days 0  
Since 1 July heating degree days 0  
Cooling Degree Days 12 15  
Month to date cooling degree days 309  
Year to date cooling degree days 3788  
Growing Degree Days 28 (Base 50)    
Moisture  
Dew Point 64 °F    
Average Humidity 64    
Maximum Humidity 81    
Minimum Humidity 44    
Precipitation  
Precipitation 0.00 in 0.06 in 3.09 in (1985)
Month to date precipitation 1.02  
Year to date precipitation 10.62  
Snow  
Snow 0.00 in - - ()
Month to date snowfall  
Since 1 July snowfall  
Since 1 September snowfall  
Snow Depth -    
Sea Level Pressure  
Sea Level Pressure 30.05 in    
Wind  
Wind Speed 3 mph (East)    
Max Wind Speed 9 mph    
Max Gust Speed 23 mph    
Visibility 10 miles    
Events      
T = Trace of Precipitation, MM = Missing Value Source: NWS Daily Summary

Daily Weather History Graph

Daily Weather History Graph

Search for Another Location

Airport:

Trip Planner

Search our weather history database for the weather conditions in past years. The results will help you decide how hot, cold, wet, or windy it might be!

Date:

Astronomy

Oct. 20, 2011 Rise Set
Actual Time 6:29 AM HST 6:03 PM HST
Civil Twilight 6:07 AM HST 6:26 PM HST
Nautical Twilight 5:41 AM HST 6:52 PM HST
Astronomical Twilight 5:15 AM HST 7:18 PM HST
Moon 12:17 AM HST (10/20) 1:33 PM HST (10/20)
Length of Visible Light 12h 19m
Length of Day
11h 34m
Last Quarter, 42% of the Moon is Illuminated
Oct 20
Last Quarter
Oct 26
New
Nov 2
First Quarter
Nov 10
Full
Nov 18
Last Quarter

Hourly Weather History & Observations

Time (HST) Temp. Heat Index Dew Point Humidity Pressure Visibility Wind Dir Wind Speed Gust Speed Precip Events Conditions
12:53 AM 71.1 °F - 63.0 °F 75% 30.06 in 10.0 mi Calm Calm - N/A   Clear
1:53 AM 70.0 °F - 63.0 °F 78% 30.05 in 10.0 mi Calm Calm - N/A   Clear
2:53 AM 70.0 °F - 63.0 °F 78% 30.04 in 10.0 mi Calm Calm - N/A   Clear
3:53 AM 70.0 °F - 63.0 °F 78% 30.03 in 10.0 mi ENE 3.5 mph - N/A   Clear
4:53 AM 70.0 °F - 63.0 °F 78% 30.03 in 10.0 mi Calm Calm - N/A   Clear
5:53 AM 69.1 °F - 63.0 °F 81% 30.04 in 10.0 mi ENE 3.5 mph - N/A   Clear
6:53 AM 71.1 °F - 63.0 °F 75% 30.06 in 10.0 mi Variable 3.5 mph - N/A   Mostly Cloudy
7:53 AM 77.0 °F - 64.9 °F 66% 30.07 in 10.0 mi Variable 4.6 mph - N/A   Partly Cloudy
8:53 AM 81.0 °F 82.5 °F 64.0 °F 56% 30.08 in 10.0 mi ENE 8.1 mph - N/A   Clear
9:53 AM 82.0 °F 83.1 °F 63.0 °F 52% 30.08 in 10.0 mi East 8.1 mph - N/A   Mostly Cloudy
10:53 AM 84.9 °F 86.1 °F 64.0 °F 49% 30.07 in 10.0 mi East 8.1 mph - N/A   Overcast
11:53 AM 84.9 °F 86.1 °F 64.0 °F 49% 30.06 in 10.0 mi East 8.1 mph - N/A   Mostly Cloudy
12:53 PM 86.0 °F 86.8 °F 63.0 °F 46% 30.03 in 10.0 mi Variable 6.9 mph - N/A   Mostly Cloudy
1:53 PM 86.0 °F 86.3 °F 62.1 °F 44% 30.01 in 10.0 mi ESE 9.2 mph 23.0 mph N/A   Mostly Cloudy
2:53 PM 84.0 °F 85.4 °F 64.0 °F 51% 30.00 in 10.0 mi Variable 5.8 mph 18.4 mph N/A   Scattered Clouds
3:53 PM 82.9 °F 83.7 °F 62.1 °F 49% 30.01 in 10.0 mi East 8.1 mph - N/A   Scattered Clouds
4:53 PM 81.0 °F 82.5 °F 64.0 °F 56% 30.03 in 10.0 mi Variable 4.6 mph - N/A   Partly Cloudy
5:53 PM 79.0 °F - 62.1 °F 56% 30.04 in 10.0 mi Variable 4.6 mph - N/A   Clear
6:53 PM 75.9 °F - 64.0 °F 67% 30.07 in 10.0 mi East 3.5 mph - N/A   Clear
7:53 PM 75.0 °F - 64.0 °F 69% 30.08 in 10.0 mi ENE 3.5 mph - N/A   Clear
8:53 PM 75.0 °F - 64.0 °F 69% 30.09 in 10.0 mi ENE 4.6 mph - N/A   Clear
9:53 PM 75.0 °F - 64.0 °F 69% 30.09 in 10.0 mi ENE 4.6 mph - N/A   Clear
10:53 PM 75.0 °F - 66.0 °F 73% 30.10 in 10.0 mi ENE 3.5 mph - N/A   Partly Cloudy
11:53 PM 73.9 °F - 64.9 °F 73% 30.09 in 10.0 mi Calm Calm - N/A   Clear